Location: Ancona
(43.6330°N, 13.5000°E)
Time: 09:22:30
(UTC+01:00)

ISS - Visible Passes

Search period start: 22 January 2019 00:00
Search period end: 01 February 2019 00:00
Orbit: 404 x 410 km, 51.6° (Epoch: 23 January)

Date Brightness Start Highest point End Pass type
(mag) Time Alt. Az. Time Alt. Az. Time Alt. Az.
22 Jan -1.5 17:54:27 10° SSE 17:55:54 12° SE 17:57:16 10° ESE visible
22 Jan -1.4 19:28:41 10° WSW 19:30:01 22° WSW 19:30:01 22° WSW visible
23 Jan -3.6 18:37:28 10° SW 18:40:40 51° SE 18:41:04 48° ESE visible
24 Jan -2.6 17:46:33 10° SSW 17:49:26 28° SE 17:52:02 12° E visible
24 Jan -2.0 19:22:41 10° W 19:24:46 31° WNW 19:24:46 31° WNW visible
25 Jan -3.7 18:31:09 10° WSW 18:34:26 70° NNW 18:35:40 35° NE visible
26 Jan -3.7 17:39:48 10° SW 17:43:04 68° SE 17:46:21 10° ENE visible
26 Jan -1.9 19:16:56 10° WNW 19:19:13 26° NW 19:19:13 26° NW visible
27 Jan -2.7 18:25:12 10° W 18:28:18 37° NNW 18:29:59 21° NNE visible
28 Jan -1.8 19:11:13 10° WNW 19:13:25 21° NNW 19:13:25 21° NNW visible
29 Jan -2.1 18:19:24 10° WNW 18:22:13 25° NNW 18:24:07 16° NNE visible
30 Jan -1.8 19:05:19 10° NW 19:07:29 19° N 19:07:29 19° N visible
31 Jan -1.9 18:13:36 10° WNW 18:16:11 20° N 18:18:09 13° NE visible
31 Jan -0.6 19:50:38 10° NW 19:50:52 11° NW 19:50:52 11° NW visible
